Date_and_time,latitude,longitude,wind_speed,RelWindDirFrom,WindDirFrom,air_pressure,air_temperature,relative_humidity,Temp,platform_speed_wrt_ground,air_pressure_at_mean_sea_level,platform_orientation
2018-07-06 00:00,50.9117366666667,-96.9825266666667,11.0,16.0,277,999.65,24.5,30,21.21,0.0,1025.48,350.2
2018-07-06 00:10,50.9117366666667,-96.9825266666667,8.8,14.2,283,999.68,24.5,31,21.16,0.0,1025.52,350.2
2018-07-06 00:20,50.911735,-96.982525,9.9,14.4,277,999.64,24.4,30,21.09,0.0,1025.48,350.2
2018-07-06 00:30,50.911735,-96.9825266666667,10.5,14.4,283,999.60,24.3,31,21.07,0.0,1025.44,350.2
2018-07-06 00:40,50.9117583333333,-96.9825416666667,9.8,15.2,285,999.66,24.3,31,21.04,0.0,1025.50,350.2
2018-07-06 00:50,50.91175,-96.9825283333333,9.1,14.3,288,999.70,24.2,30,21.00,0.0,1025.55,350.2
2018-07-06 01:00,50.9117316666667,-96.98252,8.9,12.8,286,999.68,24.0,29,20.93,0.0,1025.54,90.0
2018-07-06 01:10,50.9117483333333,-96.9825116666667,7.8,10.9,280,999.68,23.8,30,20.82,0.0,1025.55,90.0
2018-07-06 01:20,50.9117466666667,-96.9825183333333,7.7,11.0,280,999.68,23.7,30,20.69,0.0,1025.55,90.0
2018-07-06 01:30,50.9117366666667,-96.982525,6.2,8.3,271,999.72,23.5,30,20.58,0.0,1025.61,90.0
2018-07-06 01:40,50.9117383333333,-96.982525,6.3,9.2,268,999.76,23.3,31,20.47,0.0,1025.66,90.0
2018-07-06 01:50,50.911735,-96.982525,5.8,8.7,270,999.79,23.0,32,20.36,0.0,1025.70,90.0
2018-07-06 02:00,50.911735,-96.982525,5.6,7.4,268,999.80,22.7,34,20.23,0.0,1025.74,37.5
2018-07-06 02:10,50.911735,-96.9825266666667,5.6,7.3,268,999.84,22.3,35,20.08,0.0,1025.79,37.5
2018-07-06 02:20,50.9117433333333,-96.9825633333333,5.0,7.5,268,999.89,21.9,36,19.92,0.0,1025.87,37.5
2018-07-06 02:30,50.9117416666667,-96.9825283333333,4.9,6.8,263,1000.02,21.4,38,19.74,0.0,1026.03,37.5
2018-07-06 02:40,50.9117416666667,-96.9825233333333,4.8,6.6,267,1000.10,20.8,39,19.56,0.0,1026.14,37.5
2018-07-06 02:50,50.9117416666667,-96.982525,5.2,6.9,263,1000.17,20.4,39,19.37,0.0,1026.24,37.5
2018-07-06 03:00,50.9117216666667,-96.9825183333333,5.7,7.7,253,1000.27,20.2,40,19.22,0.0,1026.35,360.0
2018-07-06 03:10,50.91173,-96.9825216666667,5.9,7.7,257,1000.37,20.0,40,19.11,0.0,1026.47,360.0
2018-07-06 03:20,50.9117333333333,-96.9825216666667,4.7,6.6,261,1000.43,19.7,41,19.00,0.0,1026.55,360.0
2018-07-06 03:30,50.9117333333333,-96.9825216666667,3.9,4.8,265,1000.46,19.2,43,18.84,0.0,1026.62,360.0
2018-07-06 03:40,50.9117483333333,-96.9825166666667,4.3,6.1,261,1000.46,19.0,43,18.70,0.0,1026.64,360.0
2018-07-06 03:50,50.9117333333333,-96.982555,5.1,7.2,259,1000.50,19.1,42,18.56,0.0,1026.69,360.0
2018-07-06 04:00,50.91173,-96.9825283333333,4.0,6.1,253,1000.59,18.7,45,18.44,0.0,1026.82,270.0
2018-07-06 04:10,50.9117316666667,-96.9825233333333,3.8,5.5,257,1000.63,17.7,48,18.31,0.0,1026.92,270.0
2018-07-06 04:20,50.9117316666667,-96.9825216666667,4.5,6.1,240,1000.66,17.7,48,18.17,0.0,1026.98,270.0
2018-07-06 04:30,50.91173,-96.9825216666667,4.3,6.6,242,1000.71,18.0,48,18.09,0.0,1027.04,270.0
2018-07-06 04:40,50.91173,-96.9825233333333,3.9,5.7,257,1000.69,17.9,50,18.01,0.0,1027.05,270.0
2018-07-06 04:50,50.91173,-96.982525,3.1,4.4,259,1000.76,17.6,52,17.92,0.0,1027.14,270.0
2018-07-06 05:00,50.91173,-96.982525,3.3,4.3,263,1000.88,17.3,53,17.84,0.0,1027.29,360.0
2018-07-06 05:10,50.9117316666667,-96.9825266666667,3.2,4.2,253,1000.97,16.8,54,17.73,0.0,1027.41,360.0
2018-07-06 05:20,50.91172,-96.98251,3.4,4.8,266,1000.93,16.6,54,17.65,0.0,1027.40,360.0
2018-07-06 05:30,50.9117216666667,-96.982525,3.6,5.2,262,1000.96,16.4,55,17.58,0.0,1027.45,360.0
2018-07-06 05:40,50.9117266666667,-96.982525,4.6,7.0,256,1000.98,16.6,55,17.49,0.0,1027.46,360.0
2018-07-06 05:50,50.9117266666667,-96.982535,4.6,6.1,252,1000.99,16.8,56,17.42,0.0,1027.48,360.0
2018-07-06 06:00,50.9117266666667,-96.9825233333333,4.9,6.9,253,1000.98,16.8,57,17.40,0.0,1027.52,360.0
2018-07-06 06:10,50.91173,-96.9825216666667,4.9,6.4,254,1000.98,16.8,58,17.39,0.0,1027.52,360.0
2018-07-06 06:20,50.91175,-96.9824933333333,5.1,6.9,254,1001.02,16.7,59,17.37,0.0,1027.55,360.0
2018-07-06 06:30,50.91174,-96.9825133333333,5.1,7.0,257,1001.00,16.6,61,17.36,0.0,1027.54,360.0
2018-07-06 06:40,50.9117383333333,-96.98252,5.4,6.7,254,1001.05,16.6,62,17.34,0.0,1027.61,360.0
2018-07-06 06:50,50.91173,-96.9825316666667,5.3,7.0,250,1001.10,16.5,64,17.32,0.0,1027.67,360.0
2018-07-06 07:00,50.9117316666667,-96.982525,6.0,8.0,245,1001.09,16.4,66,17.32,0.0,1027.69,0.0
2018-07-06 07:10,50.9117333333333,-96.9825283333333,5.2,6.8,253,1001.11,16.4,67,17.30,0.0,1027.72,0.0
2018-07-06 07:20,50.911735,-96.9825266666667,5.8,7.7,246,1001.08,16.5,67,17.29,0.0,1027.70,0.0
2018-07-06 07:30,50.9117366666667,-96.9825283333333,5.2,7.1,250,1001.07,16.5,68,17.29,0.0,1027.68,0.0
2018-07-06 07:40,50.9117366666667,-96.9825283333333,5.0,6.3,251,1001.10,16.4,69,17.29,0.0,1027.70,0.0
2018-07-06 07:50,50.911735,-96.9825283333333,5.4,7.2,246,1001.12,16.2,70,17.28,0.0,1027.73,0.0
2018-07-06 08:00,50.9117333333333,-96.9825283333333,5.6,7.2,249,1001.17,16.1,71,17.25,0.0,1027.78,0.0
2018-07-06 08:10,50.9117333333333,-96.9825266666667,5.5,7.3,248,1001.14,16.3,70,17.24,0.0,1027.75,0.0
2018-07-06 08:20,50.911735,-96.9825266666667,5.6,6.7,248,1001.09,16.4,70,17.23,0.0,1027.70,0.0
2018-07-06 08:30,50.9117216666667,-96.9825383333333,6.4,7.6,243,1001.06,16.3,70,17.22,0.0,1027.67,0.0
2018-07-06 08:40,50.911725,-96.9825316666667,5.9,7.1,247,1001.03,16.0,72,17.19,0.0,1027.66,0.0
2018-07-06 08:50,50.911715,-96.9825266666667,5.7,6.7,249,1000.98,16.2,70,17.16,0.0,1027.61,0.0
2018-07-06 09:00,50.9117216666667,-96.98253,6.1,7.6,246,1001.03,16.4,69,17.15,0.0,1027.65,360.0
2018-07-06 09:10,50.9117233333333,-96.9825083333333,7.7,8.8,241,1000.99,16.3,69,17.13,0.0,1027.61,360.0
2018-07-06 09:20,50.91171,-96.9825283333333,7.6,8.5,240,1000.98,16.5,68,17.10,0.0,1027.59,360.0
2018-07-06 09:30,50.9117016666667,-96.982515,6.7,7.7,241,1000.95,16.6,67,17.09,0.0,1027.55,360.0
2018-07-06 09:40,50.9117216666667,-96.98252,5.2,7.0,234,1000.97,16.9,65,17.10,0.0,1027.58,360.0
2018-07-06 09:50,50.9117283333333,-96.9825233333333,5.2,7.4,230,1000.96,17.1,63,17.12,0.0,1027.55,360.0
2018-07-06 10:00,50.911725,-96.98252,6.1,7.8,232,1000.92,17.3,62,17.14,0.0,1027.50,132.1
2018-07-06 10:10,50.91175,-96.9825383333333,5.6,7.7,228,1000.87,17.6,60,17.14,0.0,1027.42,132.1
2018-07-06 10:20,50.911735,-96.9825283333333,3.5,6.7,227,1000.77,18.0,59,17.18,0.0,1027.31,132.1
2018-07-06 10:30,50.9117033333333,-96.9824983333333,2.4,5.2,221,1000.71,17.7,60,17.21,0.0,1027.28,132.1
2018-07-06 10:40,50.9117316666667,-96.9825283333333,3.2,5.1,214,1000.75,17.6,60,17.20,0.0,1027.32,132.1
2018-07-06 10:50,50.9117283333333,-96.982525,3.2,5.8,215,1000.83,17.5,60,17.21,0.0,1027.39,132.1
2018-07-06 11:00,50.9117283333333,-96.982525,3.2,5.1,209,1000.88,17.5,60,17.24,0.0,1027.45,90.0
2018-07-06 11:10,50.9117283333333,-96.982525,3.0,5.1,181,1000.95,16.8,68,17.28,0.0,1027.54,90.0
2018-07-06 11:20,50.91171,-96.9825433333333,3.7,6.1,178,1000.91,16.4,72,17.32,0.0,1027.51,90.0
2018-07-06 11:30,50.91174,-96.9825183333333,4.0,6.0,183,1000.88,16.1,73,17.31,0.0,1027.48,90.0
2018-07-06 11:40,50.91174,-96.982525,4.5,5.6,175,1000.82,16.0,72,17.29,0.0,1027.42,90.0
2018-07-06 11:50,50.91172,-96.9824966666667,3.9,5.5,172,1000.83,16.3,72,17.28,0.0,1027.40,90.0
2018-07-06 12:00,50.911725,-96.982515,2.9,4.9,181,1000.82,16.7,72,17.31,0.0,1027.35,54.2
2018-07-06 12:10,50.911725,-96.9825166666667,3.8,5.4,180,1000.81,17.0,69,17.36,0.0,1027.32,54.2
2018-07-06 12:20,50.9117266666667,-96.9825166666667,3.6,5.1,180,1000.82,17.2,69,17.41,0.0,1027.34,54.2
2018-07-06 12:30,50.9117283333333,-96.9825183333333,3.1,4.3,170,1000.79,17.3,70,17.46,0.0,1027.31,54.2
2018-07-06 12:40,50.9117266666667,-96.9825266666667,3.3,4.5,166,1000.70,17.5,71,17.52,0.0,1027.21,54.2
2018-07-06 12:50,50.9117316666667,-96.9825433333333,3.4,4.8,183,1000.69,18.0,69,17.59,0.0,1027.17,54.2
2018-07-06 13:00,50.9117216666667,-96.9825266666667,4.4,6.6,183,1000.69,18.5,69,17.67,0.0,1027.18,189.8
2018-07-06 13:10,50.9117233333333,-96.9825233333333,5.1,6.7,182,1000.64,18.7,69,17.76,0.0,1027.14,189.8
2018-07-06 13:20,50.9117316666667,-96.98253,4.3,5.9,178,1000.55,18.9,69,17.87,0.0,1027.05,189.8
2018-07-06 13:30,50.9117266666667,-96.98253,3.4,4.7,171,1000.52,19.2,70,17.97,0.0,1027.02,189.8
2018-07-06 13:40,50.9117233333333,-96.982525,2.5,4.5,178,1000.52,19.8,69,18.05,0.0,1026.97,189.8
2018-07-06 13:50,50.9117216666667,-96.9825233333333,2.5,3.8,173,1000.51,20.3,67,18.14,0.0,1026.91,189.8
2018-07-06 14:00,50.911725,-96.982525,2.7,5.5,182,1000.46,21.0,65,18.25,0.0,1026.82,360.0
2018-07-06 14:10,50.911725,-96.9825233333333,3.4,7.0,199,1000.41,22.0,58,18.39,0.0,1026.72,360.0
2018-07-06 14:20,50.911725,-96.9825233333333,4.1,8.0,200,1000.38,22.6,56,18.58,0.0,1026.66,360.0
2018-07-06 14:30,50.911725,-96.9825233333333,5.1,8.9,193,1000.31,22.9,54,18.81,0.0,1026.56,360.0
2018-07-06 14:40,50.911725,-96.9825216666667,2.9,6.0,186,1000.25,23.2,55,19.02,0.0,1026.47,360.0
2018-07-06 14:50,50.9117266666667,-96.9825233333333,4.6,7.9,193,1000.18,23.6,53,19.15,0.0,1026.35,360.0
2018-07-06 15:00,50.9117266666667,-96.9825233333333,7.3,11.2,185,1000.10,23.7,50,19.29,0.0,1026.26,350.2
2018-07-06 15:10,50.9117266666667,-96.982525,8.1,11.2,147,1000.03,21.7,73,19.49,0.0,1026.26,350.2
2018-07-06 15:20,50.9117216666667,-96.9825233333333,9.3,11.3,141,999.88,20.7,78,19.46,0.0,1026.14,350.2
2018-07-06 15:30,50.91172,-96.9825316666667,10.2,13.9,143,999.83,20.6,79,19.39,0.0,1026.06,350.2
2018-07-06 15:40,50.9117483333333,-96.98255,12.5,14.7,144,999.75,20.5,82,19.36,0.0,1025.96,350.2
2018-07-06 15:50,50.91172,-96.9825166666667,12.2,16.0,144,999.63,20.4,83,19.35,0.0,1025.81,350.2
2018-07-06 16:00,50.911725,-96.9825266666667,14.2,17.4,143,999.48,20.4,85,19.34,0.0,1025.62,360.0
2018-07-06 16:10,50.9117216666667,-96.98253,15.4,18.6,145,999.38,20.3,87,19.34,0.0,1025.50,360.0
2018-07-06 16:20,50.911725,-96.982535,16.7,19.0,145,999.18,20.4,87,19.37,0.0,1025.27,360.0
2018-07-06 16:30,50.911725,-96.9825333333333,16.0,19.1,150,999.08,20.7,85,19.46,0.0,1025.15,360.0
2018-07-06 16:40,50.9117266666667,-96.9825333333333,14.7,16.9,149,998.98,21.2,80,19.64,0.0,1024.99,360.0
2018-07-06 16:50,50.9117266666667,-96.9825333333333,16.9,19.6,149,998.68,21.6,72,19.79,0.0,1024.66,360.0
2018-07-06 17:00,50.911725,-96.9825316666667,15.5,20.7,155,998.62,21.8,70,19.97,0.0,1024.68,0.0
2018-07-06 17:10,50.9117266666667,-96.9825316666667,15.1,20.3,155,998.49,22.0,69,20.15,0.0,1024.59,0.0
2018-07-06 17:20,50.9117266666667,-96.98253,14.8,19.5,159,998.35,21.8,72,20.27,0.0,1024.46,0.0
2018-07-06 17:30,50.9117283333333,-96.982555,14.6,18.2,154,998.16,21.9,70,20.35,0.0,1024.27,0.0
2018-07-06 17:40,50.91174,-96.98253,15.8,21.6,150,997.98,21.7,71,20.42,0.0,1024.09,0.0
2018-07-06 17:50,50.9117316666667,-96.982525,16.7,21.1,147,997.83,21.9,68,20.43,0.0,1023.93,0.0
2018-07-06 18:00,50.911735,-96.9825216666667,17.4,20.8,147,997.66,21.9,68,20.47,0.0,1023.76,37.5
2018-07-06 18:10,50.911725,-96.9825166666667,16.8,23.5,145,997.54,22.0,68,20.49,0.0,1023.63,37.5
2018-07-06 18:20,50.911725,-96.9825216666667,16.9,20.6,142,997.42,21.7,71,20.44,0.0,1023.50,37.5
2018-07-06 18:30,50.9117283333333,-96.9825266666667,17.6,21.2,142,997.19,21.8,70,20.41,0.0,1023.24,37.5
2018-07-06 18:40,50.9117283333333,-96.982525,17.0,21.2,145,997.01,21.9,69,20.40,0.0,1023.03,37.5
2018-07-06 18:50,50.9117283333333,-96.9825266666667,17.1,20.7,145,996.78,22.0,69,20.48,0.0,1022.78,37.5
2018-07-06 19:00,50.91173,-96.9825266666667,16.8,20.4,145,996.61,22.1,69,20.54,0.0,1022.59,37.5
2018-07-06 19:10,50.91173,-96.9825266666667,15.0,19.5,145,996.59,22.2,68,20.59,0.0,1022.58,37.5
2018-07-06 19:20,50.9117083333333,-96.9825183333333,15.4,20.1,149,996.49,22.4,67,20.65,0.0,1022.46,37.5
2018-07-06 19:30,50.91173,-96.9825233333333,15.1,18.0,151,996.24,22.6,66,20.76,0.0,1022.20,37.5
2018-07-06 19:40,50.9117266666667,-96.9825566666667,14.2,21.4,178,996.06,24.3,53,20.96,0.0,1021.94,37.5
2018-07-06 19:50,50.91173,-96.9825283333333,12.5,20.8,178,995.93,24.9,52,21.31,0.0,1021.78,37.5
2018-07-06 20:00,50.911735,-96.98253,12.4,17.7,178,995.78,25.2,52,21.59,0.0,1021.61,360.0
2018-07-06 20:10,50.9117333333333,-96.98253,13.8,23.9,182,995.60,25.4,51,21.83,0.0,1021.42,360.0
2018-07-06 20:20,50.9117316666667,-96.9825266666667,14.3,22.3,182,995.38,25.8,48,22.05,0.0,1021.17,360.0
2018-07-06 20:30,50.9117333333333,-96.982525,13.8,17.9,180,995.36,25.8,50,22.26,0.0,1021.15,360.0
2018-07-06 20:40,50.9117266666667,-96.9825083333333,14.6,20.1,180,995.19,25.9,50,22.41,0.0,1020.97,360.0
2018-07-06 20:50,50.9117266666667,-96.9825183333333,13.2,21.8,182,995.04,25.8,50,22.56,0.0,1020.82,360.0
2018-07-06 21:00,50.9117266666667,-96.982525,14.6,19.6,178,994.90,25.9,50,22.67,0.0,1020.66,227.9
2018-07-06 21:10,50.9117266666667,-96.98253,14.7,19.7,182,994.75,25.8,52,22.76,0.0,1020.51,227.9
2018-07-06 21:20,50.911725,-96.9825283333333,12.9,18.9,185,994.65,26.2,51,22.80,0.0,1020.38,227.9
2018-07-06 21:30,50.9117383333333,-96.9825383333333,13.6,20.8,185,994.45,26.2,52,22.87,0.0,1020.10,227.9
2018-07-06 21:40,50.9117416666667,-96.9825416666667,17.1,22.7,178,994.18,26.1,52,22.96,0.0,1019.80,227.9
2018-07-06 21:50,50.9117383333333,-96.9825516666667,15.7,23.7,188,994.05,26.1,51,23.11,0.0,1019.65,227.9
2018-07-06 22:00,50.9117333333333,-96.9825516666667,15.8,21.8,181,993.92,26.1,53,23.17,0.0,1019.52,270.0
2018-07-06 22:10,50.911725,-96.9825216666667,17.4,23.6,178,993.73,25.7,53,23.20,0.0,1019.31,270.0
2018-07-06 22:20,50.9117283333333,-96.9825283333333,15.3,22.6,188,993.68,26.1,52,23.23,0.0,1019.25,270.0
2018-07-06 22:30,50.911735,-96.9825316666667,16.5,22.0,178,993.56,26.0,53,23.24,0.0,1019.12,270.0
2018-07-06 22:40,50.9117266666667,-96.9825383333333,18.6,22.1,178,993.21,25.8,52,23.29,0.0,1018.78,270.0
2018-07-06 22:50,50.9117283333333,-96.982535,20.2,25.1,176,992.96,25.8,52,23.36,0.0,1018.51,270.0
2018-07-06 23:00,50.91173,-96.982535,15.6,23.6,183,992.77,26.0,53,23.45,0.0,1018.32,189.8
2018-07-06 23:10,50.9117333333333,-96.9825283333333,15.2,20.8,180,992.66,25.9,54,23.40,0.0,1018.20,189.8
2018-07-06 23:20,50.9117383333333,-96.9825233333333,16.3,21.2,181,992.48,25.8,54,23.32,0.0,1018.01,189.8
2018-07-06 23:30,50.9117233333333,-96.9825316666667,14.5,18.6,184,992.41,25.9,54,23.31,0.0,1017.94,189.8
